Tracking 19832 objects as of 26-Aug-2019
HD Live streaming from Space Station
objects crossing your sky now

TITAN 3C TRANSTAGE DEB

Track TITAN 3C TRANSTAGE DEB now!
10-day predictions


NORAD ID: 21692
Int'l Code: 1965-108AF
Perigee: 581.2 km
Apogee: 23,175.5 km
Inclination: 28.2 °
Period: 408.9 minutes
Semi major axis: 18249 km
RCS: 0.133 m2 (medium)
Launch date: December 21, 1965
Source: United States (US)
Launch site: AIR FORCE EASTERN TEST RANGE (AFETR)

Note: This is SATELLITE DEBRIS
aabbcc
Your satellite tracking list
Your tracking list is empty




NASA's NSSDC Master Catalog

Two Line Element Set (TLE):
1 21692U 65108AF  19234.43313122  .00000190  00000-0  83748-3 0  9991
2 21692  28.2101 204.6059 6190432 251.6027 332.3005  3.52153736318407
Source of the keplerian elements: AFSPC